• In Hungary
  • List of Countries
  • For 7 days
  • Water Temperature
  • Satellite Maps
  • Weather Map
  • News
  • Weather Widgets
  • user-avatar
    Login

    Hourly Weather Shlina

    Today, 23 May, Wednesday

    Time Temperature Precipitation Wind Pressure Humidity
    00:00 +10°C° 0 mm 2 mps 749 mmHg 92%
    01:00 +10°C° 0 mm 2 mps 749 mmHg 94%
    02:00 +10°C° 0 mm 2 mps 749 mmHg 97%
    03:00 +10°C° 0 mm 2 mps 749 mmHg 95%
    04:00 +12°C° 0 mm 2 mps 749 mmHg 94%
    05:00 +12°C° 0 mm 2 mps 749 mmHg 93%
    06:00 +13°C° 0 mm 2 mps 749 mmHg 85%
    07:00 +15°C° 0 mm 2 mps 749 mmHg 78%
    08:00 +16°C° 0 mm 3 mps 749 mmHg 71%
    09:00 +16°C° 0 mm 3 mps 749 mmHg 67%
    10:00 +17°C° 0 mm 3 mps 749 mmHg 64%
    11:00 +17°C° 0 mm 3 mps 749 mmHg 61%
    12:00 +18°C° 0 mm 3 mps 749 mmHg 58%
    13:00 +19°C° 0 mm 3 mps 749 mmHg 54%
    14:00 +20°C° 0 mm 3 mps 749 mmHg 49%
    15:00 +20°C° 0 mm 3 mps 749 mmHg 51%
    16:00 +20°C° 0 mm 2 mps 749 mmHg 52%
    17:00 +20°C° 0 mm 2 mps 748 mmHg 53%
    18:00 +18°C° 0 mm 2 mps 748 mmHg 61%
    19:00 +16°C° 0 mm 1 mps 748 mmHg 69%
    20:00 +14°C° 0 mm 1 mps 748 mmHg 77%
    21:00 +13°C° 0 mm 1 mps 749 mmHg 81%
    22:00 +12°C° 0 mm 1 mps 749 mmHg 85%
    23:00 +11°C° 0 mm 1 mps 749 mmHg 90%

    Tomorrow, 24 May, Thursday

    Time Temperature Precipitation Wind Pressure Humidity
    00:00 +10°C° 0 mm 0 mps 749 mmHg 90%
    01:00 +10°C° 0 mm 0 mps 749 mmHg 91%
    02:00 +9°C° 0 mm 0 mps 749 mmHg 92%
    03:00 +10°C° 0 mm 0 mps 749 mmHg 89%
    04:00 +11°C° 0 mm 0 mps 749 mmHg 87%
    05:00 +12°C° 0 mm 0 mps 749 mmHg 84%
    06:00 +15°C° 0 mm 1 mps 749 mmHg 75%
    07:00 +18°C° 0 mm 1 mps 750 mmHg 66%
    08:00 +20°C° 0 mm 1 mps 750 mmHg 58%
    09:00 +22°C° 0 mm 1 mps 750 mmHg 53%
    10:00 +23°C° 0 mm 1 mps 750 mmHg 48%
    11:00 +24°C° 0 mm 2 mps 750 mmHg 43%
    12:00 +24°C° 0 mm 2 mps 750 mmHg 43%
    13:00 +24°C° 0 mm 2 mps 749 mmHg 43%
    14:00 +24°C° 0 mm 2 mps 749 mmHg 43%
    15:00 +22°C° 0 mm 3 mps 749 mmHg 47%
    16:00 +22°C° 0 mm 3 mps 749 mmHg 51%
    17:00 +21°C° 0 mm 3 mps 750 mmHg 55%
    18:00 +19°C° 0 mm 3 mps 750 mmHg 63%
    19:00 +18°C° 0 mm 2 mps 750 mmHg 70%
    20:00 +16°C° 0 mm 2 mps 750 mmHg 78%
    21:00 +15°C° 0 mm 2 mps 751 mmHg 78%
    22:00 +13°C° 0 mm 2 mps 751 mmHg 78%
    23:00 +12°C° 0 mm 2 mps 752 mmHg 78%

    Day after tomorrow, 25 May, Friday

    Time Temperature Precipitation Wind Pressure Humidity
    00:00 +10°C° 0 mm 2 mps 752 mmHg 74%
    01:00 +9°C° 0 mm 2 mps 753 mmHg 71%
    02:00 +8°C° 0 mm 2 mps 753 mmHg 68%
    03:00 +8°C° 0 mm 2 mps 753 mmHg 66%
    04:00 +9°C° 0 mm 2 mps 754 mmHg 64%
    05:00 +9°C° 0 mm 2 mps 754 mmHg 62%
    06:00 +12°C° 0 mm 2 mps 754 mmHg 56%
    07:00 +14°C° 0 mm 2 mps 755 mmHg 49%
    08:00 +16°C° 0 mm 3 mps 755 mmHg 43%
    09:00 +17°C° 0 mm 3 mps 755 mmHg 40%
    10:00 +18°C° 0 mm 3 mps 755 mmHg 38%
    11:00 +19°C° 0 mm 2 mps 755 mmHg 35%
    12:00 +20°C° 0 mm 2 mps 755 mmHg 34%
    13:00 +20°C° 0 mm 2 mps 755 mmHg 34%
    14:00 +21°C° 0 mm 2 mps 755 mmHg 33%
    15:00 +20°C° 0 mm 2 mps 755 mmHg 35%
    16:00 +20°C° 0 mm 2 mps 755 mmHg 36%
    17:00 +21°C° 0 mm 1 mps 755 mmHg 38%
    18:00 +19°C° 0 mm 1 mps 755 mmHg 45%
    19:00 +16°C° 0 mm 1 mps 755 mmHg 53%
    20:00 +14°C° 0 mm 1 mps 756 mmHg 60%
    21:00 +13°C° 0 mm 1 mps 756 mmHg 62%
    22:00 +12°C° 0 mm 1 mps 756 mmHg 64%
    23:00 +11°C° 0 mm 1 mps 757 mmHg 67%

    26 May, Saturday

    Time Temperature Precipitation Wind Pressure Humidity
    00:00 +10°C° 0 mm 2 mps 757 mmHg 68%
    01:00 +9°C° 0 mm 2 mps 757 mmHg 69%
    02:00 +9°C° 0 mm 2 mps 758 mmHg 70%
    03:00 +9°C° 0 mm 2 mps 758 mmHg 69%
    04:00 +10°C° 0 mm 2 mps 758 mmHg 67%
    05:00 +12°C° 0 mm 2 mps 758 mmHg 66%
    06:00 +14°C° 0 mm 2 mps 759 mmHg 59%
    07:00 +16°C° 0 mm 2 mps 759 mmHg 52%
    08:00 +18°C° 0 mm 2 mps 759 mmHg 45%
    09:00 +20°C° 0 mm 2 mps 759 mmHg 41%
    10:00 +21°C° 0 mm 2 mps 759 mmHg 38%
    11:00 +23°C° 0 mm 2 mps 758 mmHg 34%
    12:00 +24°C° 0 mm 2 mps 758 mmHg 34%
    13:00 +24°C° 0 mm 3 mps 758 mmHg 34%
    14:00 +24°C° 0 mm 3 mps 757 mmHg 34%
    15:00 +24°C° 0 mm 3 mps 757 mmHg 36%
    16:00 +24°C° 0 mm 3 mps 757 mmHg 38%
    17:00 +24°C° 0 mm 3 mps 756 mmHg 40%
    18:00 +20°C° 0 mm 2 mps 756 mmHg 49%
    19:00 +18°C° 0 mm 2 mps 756 mmHg 58%
    20:00 +16°C° 0 mm 2 mps 756 mmHg 67%
    21:00 +15°C° 0 mm 2 mps 756 mmHg 69%
    22:00 +14°C° 0 mm 2 mps 756 mmHg 71%
    23:00 +13°C° 0 mm 2 mps 757 mmHg 74%

    27 May, Sunday

    Time Temperature Precipitation Wind Pressure Humidity
    00:00 +13°C° 0 mm 2 mps 756 mmHg 74%
    01:00 +12°C° 0 mm 2 mps 756 mmHg 75%
    02:00 +11°C° 0 mm 3 mps 756 mmHg 76%
    03:00 +12°C° 0 mm 3 mps 756 mmHg 74%
    04:00 +12°C° 0 mm 3 mps 756 mmHg 73%
    05:00 +13°C° 0 mm 3 mps 756 mmHg 72%
    06:00 +14°C° 0 mm 3 mps 756 mmHg 67%
    07:00 +17°C° 0 mm 3 mps 756 mmHg 62%
    08:00 +19°C° 0 mm 4 mps 755 mmHg 57%
    09:00 +20°C° 0 mm 4 mps 755 mmHg 53%
    10:00 +22°C° 0 mm 4 mps 755 mmHg 48%
    11:00 +23°C° 0 mm 4 mps 754 mmHg 44%
    12:00 +23°C° 0 mm 4 mps 754 mmHg 44%
    13:00 +25°C° 0 mm 4 mps 754 mmHg 43%
    14:00 +25°C° 0 mm 4 mps 753 mmHg 42%
    15:00 +25°C° 0 mm 4 mps 753 mmHg 45%
    16:00 +24°C° 0 mm 3 mps 753 mmHg 47%
    17:00 +24°C° 0 mm 3 mps 752 mmHg 50%
    18:00 +22°C° 0 mm 3 mps 752 mmHg 58%
    19:00 +20°C° 0 mm 2 mps 752 mmHg 66%
    20:00 +18°C° 0 mm 2 mps 752 mmHg 74%
    21:00 +17°C° 0 mm 2 mps 753 mmHg 77%
    22:00 +16°C° 0 mm 2 mps 753 mmHg 81%
    23:00 +15°C° 0 mm 2 mps 753 mmHg 84%

    28 May, Monday

    Time Temperature Precipitation Wind Pressure Humidity
    00:00 +14°C° 0 mm 2 mps 753 mmHg 84%
    01:00 +13°C° 0 mm 2 mps 754 mmHg 83%
    02:00 +12°C° 0 mm 2 mps 754 mmHg 83%
    03:00 +12°C° 0 mm 2 mps 754 mmHg 78%
    04:00 +12°C° 0 mm 2 mps 755 mmHg 73%
    05:00 +12°C° 0 mm 2 mps 755 mmHg 67%
    06:00 +13°C° 0 mm 2 mps 756 mmHg 59%
    07:00 +15°C° 0 mm 2 mps 756 mmHg 51%
    08:00 +17°C° 0 mm 3 mps 756 mmHg 43%
    09:00 +18°C° 0 mm 2 mps 756 mmHg 39%
    10:00 +19°C° 0 mm 2 mps 756 mmHg 34%
    11:00 +20°C° 0 mm 2 mps 756 mmHg 30%
    12:00 +21°C° 0 mm 2 mps 756 mmHg 29%
    13:00 +21°C° 0 mm 2 mps 756 mmHg 28%
    14:00 +23°C° 0 mm 1 mps 756 mmHg 27%
    15:00 +23°C° 0 mm 1 mps 756 mmHg 29%
    16:00 +23°C° 0 mm 1 mps 756 mmHg 31%
    17:00 +22°C° 0 mm 1 mps 755 mmHg 32%
    18:00 +20°C° 0 mm 1 mps 755 mmHg 40%
    19:00 +18°C° 0 mm 1 mps 755 mmHg 48%
    20:00 +15°C° 0 mm 1 mps 755 mmHg 56%
    21:00 +14°C° 0 mm 1 mps 755 mmHg 57%
    22:00 +13°C° 0 mm 1 mps 755 mmHg 58%
    23:00 +12°C° 0 mm 1 mps 755 mmHg 59%
    Show more